Temperature
20 18 17 18 18 18 18 18 17 18 18 17 17 16 16 17 16 16 16 17 17 17 18 17 17 17 17 17 17 17 17 17 17 16 16 16 16 16 16 16 15 15 15 15
18 18 19 19 18 18 18 18 18 18 18 17 16 16 16 16 16 16 16 17 17 17 17 17 17 17 17 17 17 17 17 17 16 16 16 16 16 16 15 15 15 15 15 15
19 19 19 19 19 18 18 18 18 18 18 17 17 17 16 16 16 16 17 17 17 17 17 17 17 17 17 17 17 17 17 17 16 16 16 16 16 16 16 15 15 15 15 15
18 19 19 19 19 19 18 19 18 18 17 16 17 16 16 15 15 16 16 17 17 17 17 17 17 17 17 17 17 17 17 17 16 16 16 16 16 16 16 15 15 15 15 15
19 19 19 19 19 19 19 19 18 18 17 16 16 16 15 15 15 15 16 16 17 18 18 18 18 18 17 17 17 17 17 17 16 16 16 16 16 16 15 15 15 15 15 15
19 19 19 19 19 19 18 17 17 15 15 16 16 16 16 15 16 16 16 17 17 18 18 18 18 18 17 17 17 17 17 17 16 16 16 16 16 16 16 15 15 15 15 15
19 19 19 20 19 19 18 16 16 16 15 16 16 16 16 17 16 16 16 17 18 18 18 18 17 17 17 17 17 17 17 17 16 16 16 16 16 16 15 15 15 15 15 15
18 18 19 19 19 18 18 17 16 17 16 16 16 16 16 17 17 17 17 18 18 18 18 18 18 17 17 17 17 17 17 16 16 16 16 16 15 15 15 15 15 15 15 15
17 18 19 19 19 18 18 16 16 15 16 16 16 16 16 17 17 16 17 17 17 17 18 18 18 17 17 17 17 17 16 16 16 16 16 16 15 15 15 15 15 15 14 14
17 18 19 19 19 18 18 16 15 15 16 16 16 16 16 17 16 16 16 16 17 17 17 17 17 17 17 17 17 16 16 16 16 16 15 15 15 15 15 15 15 14 14 14
17 17 18 18 18 18 17 17 15 14 14 15 16 16 17 16 16 16 16 17 17 17 17 17 17 17 17 17 17 16 16 16 16 15 15 15 15 15 15 14 14 14 14 14
16 15 16 17 18 18 18 17 15 16 15 14 14 15 17 16 16 16 16 17 17 17 17 17 17 17 17 17 16 16 16 16 15 15 15 15 14 14 14 14 14 14 13 13
16 15 16 17 17 17 18 17 16 14 13 13 14 16 16 15 15 16 16 16 17 17 17 17 17 17 17 16 16 16 16 15 15 15 15 14 14 14 14 14 14 13 13 13
16 15 16 17 17 17 17 17 16 15 14 14 14 16 16 15 15 15 16 16 17 17 17 17 17 17 16 16 16 16 15 15 15 15 14 14 14 14 14 13 13 13 13 13
16 16 16 16 17 17 17 17 17 16 15 15 16 15 16 15 15 15 16 16 16 16 16 16 16 16 16 16 16 15 15 15 15 14 14 14 14 14 13 13 13 13 13 13
14 16 16 17 17 17 17 17 17 16 16 15 16 15 15 15 15 15 15 15 15 15 16 16 16 16 16 15 15 15 15 15 14 14 14 14 14 13 13 13 12 12 12 12
13 14 15 15 16 17 16 16 16 16 16 16 15 15 14 14 14 15 15 15 15 15 16 16 16 16 15 15 15 15 14 14 14 14 14 13 13 13 13 13 12 12 12 12
13 13 12 13 15 16 16 16 16 16 16 15 15 15 14 14 15 15 15 15 15 15 16 16 16 15 15 15 14 14 14 14 14 13 13 13 13 13 12 12 12 12 12 12
12 13 12 12 14 14 15 16 15 16 16 15 14 14 14 14 14 15 15 15 16 15 15 15 15 15 15 14 14 14 14 13 13 13 13 13 12 12 12 12 12 12 11 11
11 12 12 12 14 14 15 16 16 16 15 15 14 14 14 14 13 13 16 15 15 15 15 15 15 14 14 14 14 13 13 13 13 13 12 12 12 12 12 12 11 11 11 11
13 12 12 12 13 13 14 15 16 15 15 15 15 15 14 13 14 15 16 15 15 15 15 14 14 14 14 13 13 13 13 13 13 12 12 12 12 12 11 11 11 11 11 10
12 12 11 11 13 13 14 14 14 14 15 15 15 15 15 15 15 15 15 15 15 15 14 14 14 13 13 13 13 12 12 12 12 12 12 11 11 11 11 11 11 10 10 10
11 11 11 11 12 13 13 14 15 15 15 15 15 15 15 15 15 15 15 14 14 14 14 13 13 13 12 12 12 12 12 12 11 11 11 11 11 11 10 10 10 10 10 9
10 10 10 11 11 12 13 14 15 15 15 15 15 15 15 14 14 14 14 14 14 13 13 13 12 12 12 12 11 11 11 11 11 11 10 10 10 10 10 10 10 9 9 9
10 9 10 10 11 12 13 14 14 14 14 14 14 14 14 14 14 14 13 13 13 13 13 12 12 12 11 11 11 11 11 10 10 10 10 10 10 9 9 9 9 9 9 9
9 9 10 11 12 11 13 14 14 14 14 14 13 13 13 13 13 13 13 13 12 12 12 12 11 11 11 11 11 10 10 10 10 9 9 9 9 9 9 9 9 9 9 9
Wind_Speed
3 4 3 7 7 4 5 4 2 3 2 3 3 4 5 3 4 5 6 6 6 6 5 2 2 2 2 2 3 3 4 4 4 2 2 2 1 1 1 1 2 4 5 6
5 2 5 4 4 4 3 3 2 1 2 3 2 4 4 3 5 6 8 8 8 6 3 2 2 2 3 3 3 3 3 4 4 3 2 2 2 1 1 1 2 3 4 5
4 4 1 4 4 4 3 5 4 3 1 2 1 4 3 2 2 3 5 6 6 8 7 6 4 4 3 4 4 4 4 4 4 4 3 3 3 2 2 1 1 1 3 4
2 3 1 3 3 5 4 5 5 4 3 1 1 3 6 4 3 4 6 6 7 7 7 7 6 5 5 5 4 4 4 4 4 4 4 4 3 2 2 1 1 0 2 3
2 2 3 3 4 5 3 2 3 2 3 1 1 2 6 2 4 7 8 8 8 8 8 8 7 7 5 4 3 3 3 3 3 4 5 4 3 2 1 1 1 1 1 2
3 2 2 4 2 3 4 5 5 4 3 1 3 4 5 4 6 6 6 7 8 8 7 7 6 4 3 3 3 3 3 3 3 4 5 5 5 3 2 2 2 1 1 1
4 3 2 2 2 2 4 5 3 3 2 4 2 3 7 6 5 6 7 7 7 6 6 6 5 5 4 4 4 4 4 4 3 4 4 5 5 5 5 4 3 2 2 2
1 4 3 2 4 4 4 6 5 3 4 4 1 4 6 5 4 3 4 3 4 5 6 6 7 6 5 5 4 4 5 4 4 4 4 4 4 4 4 4 4 4 3 3
5 4 3 2 2 7 5 3 4 5 2 1 4 5 6 2 2 1 1 2 3 5 6 6 6 6 5 5 5 5 5 4 4 4 3 3 3 4 4 4 3 3 3 3
6 3 3 2 3 2 4 7 5 4 3 2 5 4 5 5 4 2 2 3 4 4 4 4 5 5 5 5 4 4 4 4 3 3 3 2 3 3 3 3 3 3 3 2
4 3 3 2 2 4 3 4 4 4 4 4 3 6 5 6 6 5 5 4 4 4 4 4 4 4 3 3 4 4 4 3 3 3 3 3 2 2 2 3 3 3 2 2
3 4 2 5 4 2 4 5 6 4 3 4 3 6 5 4 4 4 4 3 3 3 3 3 3 3 3 3 3 4 4 4 4 4 3 3 2 2 2 2 2 2 2 2
5 5 2 5 5 2 1 3 4 5 4 5 4 6 3 2 1 2 3 3 3 2 2 2 2 2 3 3 3 4 4 4 4 4 3 3 2 2 2 2 2 2 2 2
5 4 5 6 6 4 3 3 5 6 4 5 7 8 7 5 4 3 3 3 3 3 3 3 3 3 3 4 4 4 3 4 3 3 3 3 3 4 3 3 3 3 3 3
4 3 4 5 4 3 4 5 6 7 8 8 8 7 9 7 6 5 4 3 3 2 2 3 4 4 3 3 3 3 3 3 3 3 3 4 4 3 3 3 3 2 2 3
3 2 1 2 2 3 4 5 6 6 5 6 5 7 7 4 1 2 3 4 4 3 3 4 4 4 4 5 4 4 3 3 4 4 4 3 2 3 3 3 2 2 2 2
2 3 2 3 3 1 5 5 5 4 4 6 7 7 3 1 3 4 4 4 4 4 4 4 4 5 6 6 5 5 5 3 4 4 3 3 3 3 3 3 2 2 3 2
5 4 3 0 1 4 7 3 4 4 3 4 4 4 3 4 3 2 3 4 4 4 4 3 3 3 4 4 4 3 3 3 3 3 2 2 3 3 3 3 3 3 2 3
4 6 4 3 2 6 6 2 2 3 4 3 4 3 2 1 2 3 2 3 4 4 4 4 3 3 3 3 3 3 2 2 2 3 3 3 3 3 3 3 3 3 2 2
5 4 5 4 3 5 6 4 1 3 4 3 3 3 2 4 1 4 3 2 2 2 1 2 2 2 2 2 3 4 3 3 4 4 4 4 3 4 4 4 4 3 3 3
3 3 3 4 4 7 6 4 1 3 5 3 2 3 4 5 5 3 1 1 1 1 1 2 3 2 2 2 4 4 3 4 5 3 3 2 3 4 4 4 3 3 3 2
5 4 4 4 3 6 3 2 3 5 3 1 1 2 3 3 2 1 1 1 1 2 2 2 2 1 0 2 4 3 4 4 3 2 2 2 2 3 2 2 2 2 3 3
4 5 5 6 6 3 2 3 3 2 2 2 1 1 2 1 1 1 1 1 1 1 1 2 2 1 0 1 3 4 4 3 2 2 2 2 2 2 2 3 3 3 3 3
3 1 2 2 4 4 3 2 2 0 1 1 0 0 2 1 1 1 1 0 0 0 0 1 2 1 1 1 2 4 3 2 2 3 3 3 3 3 2 3 3 3 4 4
4 2 1 3 4 4 4 3 2 2 3 3 3 2 0 2 1 1 1 1 1 1 1 1 2 2 2 2 2 2 2 3 3 3 3 3 3 3 3 3 4 5 6 6
3 4 4 5 5 3 4 3 1 2 2 2 2 3 2 1 1 0 1 2 2 1 1 1 1 2 2 2 2 2 2 2 3 3 3 3 3 3 2 3 3 5 6 7
Wind_Direction
50 85 180 206 194 179 155 159 206 243 208 157 206 247 262 218 198 211 218 216 221 229 238 233 207 167 154 152 151 156 150 149 138 122 123 120 103 64 62 81 117 133 134 137
49 271 235 190 167 149 146 159 206 294 112 151 222 268 268 214 213 213 214 218 221 225 231 231 221 191 184 189 187 173 168 163 163 150 139 136 133 127 121 48 75 122 139 143
181 249 192 151 154 161 200 195 194 188 69 73 62 313 285 262 231 232 222 220 217 214 214 217 213 218 206 203 199 195 188 179 168 144 112 91 72 52 44 41 52 72 140 146
226 264 155 153 192 177 227 219 180 157 132 279 127 286 285 258 258 242 238 228 225 223 212 210 208 213 214 213 206 200 186 178 170 155 148 150 156 173 209 193 170 106 127 144
249 197 165 203 224 184 198 114 121 129 140 31 344 201 288 280 259 254 242 233 230 221 210 211 211 211 213 208 199 191 178 175 169 168 168 161 163 181 165 138 139 137 121 142
261 248 196 207 212 164 132 81 67 55 71 296 237 182 280 244 233 249 239 231 227 218 208 210 212 204 203 194 186 173 172 183 175 174 177 171 175 175 162 178 184 191 198 203
330 316 292 152 105 61 98 98 43 6 4 259 245 195 252 256 238 227 230 227 220 207 200 200 200 203 205 198 194 183 174 190 189 180 187 187 187 185 186 197 200 200 210 223
187 293 261 200 178 175 167 147 158 200 229 276 299 236 256 270 275 243 221 208 198 200 200 201 203 203 205 204 197 189 183 192 191 188 196 194 187 187 194 200 198 203 212 223
180 253 289 223 187 143 138 168 163 139 162 266 280 284 297 308 349 21 158 166 199 207 205 204 202 198 199 201 201 197 195 197 194 192 186 185 189 195 198 198 196 208 218 217
161 221 292 302 80 40 142 143 109 125 156 270 296 280 258 265 262 253 217 208 219 213 207 206 202 201 201 198 193 191 192 199 194 181 183 183 191 198 198 189 193 200 219 212
149 164 308 17 174 194 119 117 121 122 154 162 268 276 237 230 226 216 222 215 207 202 199 201 204 204 192 182 175 178 186 184 182 183 180 173 183 182 175 194 203 201 214 213
145 130 226 261 268 206 168 167 153 158 209 174 187 266 284 246 229 208 214 220 215 202 198 196 193 177 170 177 176 180 186 185 192 185 178 186 186 171 174 206 219 206 214 219
138 116 64 346 345 358 144 154 151 135 126 159 182 261 302 350 284 217 208 214 208 193 183 173 169 177 190 190 183 180 185 194 192 179 177 184 186 187 200 220 223 215 214 223
122 125 173 204 224 225 238 199 167 147 166 205 221 248 283 285 266 254 228 211 196 191 187 182 188 201 204 199 193 192 196 193 184 176 183 198 209 209 208 215 219 216 211 212
108 161 216 238 243 216 231 232 198 197 197 202 233 234 255 250 236 231 217 200 189 195 202 205 203 206 207 206 206 201 199 192 184 178 194 211 216 209 202 211 224 220 212 220
86 152 191 279 286 233 257 258 222 222 214 222 245 260 261 257 190 202 210 195 199 214 221 224 220 211 210 211 212 207 205 202 181 185 205 211 206 204 206 210 213 212 223 229
123 136 133 266 302 18 275 250 218 215 211 193 221 243 251 234 221 218 212 199 206 222 225 222 223 218 214 212 205 205 208 190 179 194 205 205 203 212 221 214 202 216 225 220
151 131 137 199 70 234 247 262 198 198 241 218 228 247 226 221 230 234 207 197 218 225 222 222 221 220 215 206 203 202 182 173 182 193 209 215 206 216 215 200 212 228 228 227
160 142 132 137 214 276 296 275 185 194 270 235 217 233 231 144 54 336 262 209 217 221 215 206 201 204 199 196 191 166 162 169 186 208 218 225 214 208 200 212 227 227 215 224
68 103 125 142 183 237 259 279 237 135 278 275 201 212 189 119 109 272 268 223 228 222 194 166 140 117 142 183 153 150 174 185 214 224 224 223 216 209 212 218 224 222 210 222
76 84 145 176 216 258 267 295 104 152 254 289 221 211 176 183 209 240 238 189 182 149 119 115 116 132 179 163 147 163 184 214 228 226 226 227 220 219 221 221 216 210 209 221
180 168 183 158 197 257 301 86 165 224 265 266 233 203 190 213 236 253 207 179 115 90 85 108 121 119 82 146 153 174 215 229 222 203 210 227 231 230 230 215 222 213 208 220
200 193 192 189 211 247 268 226 260 224 238 256 239 256 189 193 244 254 263 227 141 117 113 120 132 118 41 172 170 195 230 227 197 194 221 235 245 240 226 214 222 224 218 221
274 149 154 245 264 273 285 294 327 327 246 287 251 198 155 182 218 227 250 258 290 335 158 130 119 129 258 255 225 224 234 208 184 207 231 236 233 247 250 235 226 220 221 224
248 188 193 256 278 308 319 316 324 10 26 30 23 25 139 161 195 215 240 253 240 258 230 164 176 210 242 248 245 252 236 192 200 222 239 247 242 237 243 244 236 231 232 226
223 192 189 235 241 216 262 292 332 38 7 358 12 2 3 75 219 228 247 250 234 231 231 225 228 239 254 247 245 256 241 202 200 228 247 244 239 240 240 249 280 273 254 255
Height
1516 1521 1525 1523 1523 1525 1528 1533 1535 1532 1528 1531 1533 1533 1530 1530 1530 1531 1531 1532 1533 1534 1536 1537 1538 1539 1541 1542 1543 1544 1544 1545 1546 1546 1547 1547 1547 1548 1548 1548 1549 1549 1550 1550
1521 1523 1518 1518 1520 1523 1527 1532 1534 1531 1528 1531 1534 1533 1529 1528 1528 1528 1529 1530 1531 1532 1534 1535 1537 1538 1540 1541 1542 1543 1544 1545 1545 1546 1547 1547 1547 1548 1548 1548 1549 1549 1550 1550
1522 1520 1516 1518 1521 1525 1528 1531 1531 1532 1530 1530 1533 1535 1531 1527 1527 1527 1527 1528 1529 1530 1531 1533 1535 1537 1538 1539 1540 1542 1543 1544 1545 1545 1546 1546 1547 1547 1547 1548 1548 1549 1549 1550
1519 1516 1516 1519 1521 1523 1529 1523 1525 1528 1535 1540 1537 1547 1533 1528 1526 1525 1525 1525 1526 1528 1529 1531 1533 1535 1536 1538 1539 1540 1542 1543 1544 1544 1545 1545 1546 1546 1546 1547 1548 1548 1549 1549
1519 1516 1517 1520 1518 1519 1522 1520 1524 1528 1534 1541 1540 1546 1538 1529 1528 1523 1521 1522 1523 1524 1526 1528 1530 1532 1534 1536 1537 1539 1540 1541 1542 1543 1544 1545 1545 1545 1546 1546 1547 1547 1548 1548
1516 1514 1514 1515 1514 1516 1519 1524 1529 1535 1540 1548 1541 1546 1541 1530 1524 1520 1518 1518 1519 1521 1524 1526 1528 1530 1532 1534 1536 1537 1538 1539 1541 1542 1543 1543 1544 1544 1545 1545 1545 1546 1546 1547
1519 1515 1513 1513 1517 1518 1521 1533 1547 1549 1554 1550 1538 1541 1536 1520 1516 1515 1515 1515 1516 1519 1521 1523 1526 1528 1530 1531 1533 1534 1536 1537 1538 1540 1541 1541 1542 1543 1543 1543 1544 1544 1545 1545
1527 1527 1514 1512 1515 1519 1522 1529 1545 1552 1554 1549 1539 1540 1528 1515 1513 1512 1513 1513 1515 1517 1519 1521 1523 1525 1527 1529 1531 1532 1533 1535 1536 1537 1538 1539 1540 1541 1541 1541 1542 1542 1543 1543
1527 1525 1512 1510 1510 1514 1522 1528 1528 1541 1544 1549 1543 1534 1522 1513 1512 1512 1512 1513 1514 1515 1517 1519 1521 1523 1525 1527 1529 1530 1531 1532 1534 1535 1536 1537 1538 1539 1539 1539 1540 1540 1540 1541
1517 1523 1514 1511 1511 1513 1516 1523 1534 1541 1549 1553 1544 1537 1530 1518 1514 1512 1512 1512 1513 1514 1515 1517 1519 1521 1523 1525 1526 1528 1530 1531 1532 1533 1534 1535 1536 1536 1537 1537 1537 1537 1538 1538
1513 1522 1520 1516 1516 1518 1520 1524 1531 1540 1542 1550 1551 1540 1516 1513 1511 1511 1511 1511 1511 1512 1514 1515 1517 1519 1521 1523 1524 1525 1527 1528 1529 1530 1531 1532 1533 1534 1534 1534 1534 1535 1535 1536
1513 1522 1527 1520 1512 1511 1513 1518 1527 1537 1541 1544 1547 1538 1510 1509 1508 1508 1509 1510 1510 1511 1513 1514 1516 1517 1519 1520 1522 1523 1524 1525 1527 1528 1529 1530 1530 1531 1531 1531 1531 1532 1532 1533
1512 1521 1531 1528 1524 1516 1515 1516 1521 1528 1537 1545 1545 1532 1509 1508 1507 1507 1508 1508 1509 1510 1511 1512 1514 1515 1516 1518 1519 1520 1522 1523 1524 1525 1526 1527 1527 1528 1528 1529 1529 1529 1529 1530
1508 1518 1526 1529 1525 1518 1516 1515 1518 1524 1535 1538 1533 1523 1511 1508 1507 1506 1506 1507 1508 1509 1510 1511 1512 1513 1514 1515 1517 1518 1519 1520 1521 1522 1523 1524 1525 1525 1525 1526 1526 1527 1527 1527
1508 1517 1516 1515 1512 1513 1513 1512 1514 1518 1521 1525 1519 1517 1509 1505 1505 1504 1505 1505 1506 1507 1508 1509 1510 1511 1512 1513 1514 1515 1517 1518 1519 1519 1520 1521 1522 1522 1523 1523 1523 1524 1524 1524
1509 1515 1515 1514 1511 1511 1513 1510 1510 1512 1512 1515 1513 1512 1503 1502 1502 1503 1503 1503 1504 1504 1505 1506 1507 1508 1509 1510 1511 1513 1514 1515 1515 1516 1517 1518 1519 1519 1519 1520 1520 1520 1520 1521
1513 1515 1520 1521 1515 1512 1517 1509 1508 1508 1507 1508 1511 1506 1501 1501 1501 1500 1500 1501 1501 1502 1503 1504 1504 1505 1506 1508 1509 1509 1510 1511 1512 1513 1514 1514 1515 1516 1516 1517 1517 1517 1517 1517
1511 1517 1523 1524 1519 1523 1512 1502 1501 1503 1503 1502 1502 1500 1500 1499 1499 1499 1500 1500 1500 1500 1501 1501 1502 1503 1504 1505 1506 1507 1508 1509 1509 1510 1510 1511 1512 1512 1513 1513 1513 1513 1514 1514
1506 1513 1523 1528 1526 1520 1508 1501 1501 1503 1503 1499 1499 1498 1498 1498 1499 1499 1498 1498 1499 1499 1499 1500 1500 1501 1502 1503 1504 1505 1505 1506 1506 1507 1507 1508 1508 1509 1509 1509 1510 1510 1510 1510
1507 1510 1520 1526 1524 1523 1509 1499 1497 1501 1504 1497 1496 1497 1497 1498 1502 1500 1497 1497 1497 1498 1498 1498 1499 1499 1500 1500 1501 1502 1503 1503 1503 1504 1504 1505 1505 1505 1505 1506 1506 1506 1506 1506
1512 1516 1520 1523 1522 1515 1503 1498 1498 1508 1506 1496 1495 1495 1495 1496 1497 1497 1496 1496 1496 1496 1497 1497 1497 1497 1498 1498 1499 1499 1500 1500 1500 1501 1501 1501 1502 1502 1502 1502 1502 1502 1502 1502
1511 1516 1518 1521 1522 1516 1500 1499 1502 1501 1496 1495 1494 1494 1494 1494 1494 1494 1494 1494 1494 1494 1495 1495 1495 1495 1496 1496 1496 1496 1497 1497 1498 1498 1498 1498 1498 1498 1498 1498 1498 1498 1498 1498
1509 1508 1509 1510 1509 1502 1499 1498 1498 1496 1495 1494 1494 1493 1493 1493 1493 1493 1493 1493 1493 1493 1493 1493 1493 1493 1494 1494 1494 1494 1494 1495 1495 1495 1495 1495 1495 1495 1494 1494 1494 1494 1494 1493
1505 1504 1505 1505 1501 1498 1497 1496 1495 1495 1494 1494 1493 1492 1492 1492 1491 1491 1491 1491 1491 1491 1491 1491 1491 1491 1491 1491 1491 1492 1492 1491 1491 1491 1491 1491 1491 1491 1490 1490 1490 1489 1489 1489
1504 1503 1504 1503 1499 1497 1495 1495 1494 1494 1493 1492 1492 1492 1491 1491 1490 1490 1490 1489 1489 1489 1489 1489 1489 1488 1488 1488 1488 1488 1488 1488 1487 1487 1487 1487 1487 1486 1486 1486 1486 1485 1485 1485
1501 1502 1503 1501 1496 1496 1495 1494 1493 1492 1492 1492 1492 1491 1490 1490 1489 1488 1488 1488 1487 1487 1487 1486 1486 1486 1485 1485 1485 1485 1484 1484 1483 1483 1483 1483 1482 1482 1482 1481 1481 1480 1480 1480